Regional Weather Roundup
Issued by NWS

Current Version | Previous Version | Text Only | Print | Product List | Glossary Off
Versions: 1 2 3 4 5 6 7 8 9 10 11 12 13 14 15 16 17 18 19 20 21 22 23 24 25 26 27 28
000 ASUS46 KPQR 222210 RWROR OREGON REGIONAL WEATHER ROUNDUP NATIONAL WEATHER SERVICE PORTLAND OR 300 PM PDT SUN MAY 22 2022 NOTE: "FAIR" INDICATES FEW OR NO CLOUDS BELOW 12,000 FEET WITH NO SIGNIFICANT WEATHER AND/OR OBSTRUCTIONS TO VISIBILITY. ORZ001>013-222300- NORTHWEST OREGON CITY SKY/WX TMP DP RH WIND PRES REMARKS ASTORIA PTSUNNY 59 51 75 W9 30.25R TILLAMOOK PTSUNNY 61 52 72 W9 30.26S NEWPORT CLOUDY 52 46 82 N10 30.30R FLORENCE FAIR 55 50 82 NW12G17 30.26F PORTLAND CLOUDY 73 39 29 NW8 30.19F VANCOUVER WA PTSUNNY 72 37 28 W5 30.19F SCAPPOOSE PTSUNNY 73 36 25 CALM 30.18F HILLSBORO MOSUNNY 72 42 34 NW7 30.19F AURORA MOSUNNY 72 40 31 SW7 30.20F MCMINNVILLE MOSUNNY 71 40 32 VRB3 30.19F SALEM MOSUNNY 74 43 32 CALM 30.18F CORVALLIS PTSUNNY 72 37 28 VRB3 30.20F EUGENE PTSUNNY 72 44 36 N6 30.19F CRESWELL SUNNY 72 46 40 N8 30.18F $$ ORZ021-028-222300- SOUTHWEST OREGON CITY SKY/WX TMP DP RH WIND PRES REMARKS NORTH BEND CLOUDY 56 51 84 N12 30.26F BROOKINGS PTSUNNY 66 48 52 W9 30.19F ROSEBURG PTSUNNY 72 40 31 NW7 30.18F GRANTS PASS FAIR 73 34 23 VRB3 30.18F MEDFORD MOSUNNY 73 17 12 CALM 30.14F $$ ORZ014>016-041-222300- COLUMBIA GORGE CITY SKY/WX TMP DP RH WIND PRES REMARKS TROUTDALE PTSUNNY 73 42 32 W7 30.18F HOOD RIVER PTSUNNY 70 36 28 CALM 30.19 THE DALLES MOSUNNY 74 37 26 CALM 30.18F $$ ORZ029>031-041-044-049-050-061>064-502-503-505>511-222300- EASTERN OREGON CITY SKY/WX TMP DP RH WIND PRES REMARKS MADRAS MOSUNNY 64 34 32 NW7 30.22F REDMOND SUNNY 66 32 28 NW12G17 30.19F BEND SUNNY 66 27 22 VRB6G14 30.21F PRINEVILLE MOSUNNY 64 30 27 NW12G17 30.20F KLAMATH FALLS SUNNY 66 28 24 W10 30.17S LAKEVIEW SUNNY 63 30 28 VRB7G18 30.18F HERMISTON SUNNY 71 39 31 NW5 30.20F PENDLETON MOSUNNY 67 36 31 N5 30.20F JOHN DAY MOSUNNY 61 31 33 NW8 30.19F MEACHAM MOSUNNY 53 35 50 VRB3 30.22F LA GRANDE MOSUNNY 64 34 32 N8 30.19F BAKER CITY MOSUNNY 62 30 29 NW10G21 30.18F BURNS SUNNY 64 24 21 VRB6 30.18F ROME N/A 66 21 18 VRB7G20 30.14S ONTARIO MOSUNNY 73 25 16 NW14G22 30.15S $$ OTHER REGIONAL REPORTS CITY SKY/WX TMP DP RH WIND PRES REMARKS SEATTLE PTSUNNY 69 40 34 VRB7 30.21F SPOKANE MOSUNNY 63 30 28 CALM 30.18F VANCOUVER BC PTSUNNY 64 50 59 SW8 30.20F PRINCE GEORGE MOSUNNY 66 27 22 SW7 30.04F DAWSON CREEK SUNNY 68 27 21 NW7G17 29.94F WHITEHORSE PTSUNNY 61 18 18 CALM 29.88F BOISE SUNNY 66 25 21 NW12G25 30.12S REDDING SUNNY 88 25 10 N6G17 29.95F SAN FRANCISCO MOSUNNY 65 46 50 NW24G33 30.02F $$

USA.gov is the U.S. government's official web portal to all federal, state and local government web resources and services.